Location: Unspecified
(0.0000°N, 0.0000°E)
Time: 01:27:57
(UTC+00:00)

KAITUO 1B - Pass Details

Date: 27 March 2019
Orbit: 495 x 518 km, 97.4° (Epoch: 19 July)

Event Time Altitude Azimuth Distance (km) Brightness Sun altitude
Rises 18:38:51 0° 196° (SSW) 2,627 ? -8.4°
Maximum altitude 18:44:00 17° 258° (WSW) 1,327 ? -9.6°
Drops below altitude 10° 18:46:30 10° 301° (WNW) 1,718 ? -10.3°
Sets 18:49:07 0° 321° (NW) 2,594 ? -10.9°
